#datint,netname,site,siteID,timestamp,IntT,BattV,AirT2,AirT,AirT_Avg,AirT_Max,AirT_Min,RH_Avg,RH_Max,RH_Min,EA_Avg,Td_Avg,Td_Max,Td_Min,WindS_Smp,WindS_Avg,WindD_Avg,WindD_SD,WindS_Max,ETo,ETr,SoilT4,SoilT8,SoilVWC8,SolarW_Avg,wetstate_Avg,wetT_Avg,Precip_accum,Precip_WPG,Precip_TB
15min,AgWx,beryljct,423,29JAN2018:00:00:00,31.0,12.88,31.6,32.0,33.0,34.0,31.8,76,79,73,0.481,26.2,26.6,25.6,4.428,3.8,342,14,4.6,-0.00004,-0.00004,32.3,33.7,20,0,0,35.4,12.06,0.00,0.00
15min,AgWx,beryljct,423,29JAN2018:00:15:00,30.6,12.87,30.8,30.9,31.4,31.9,30.9,80,82,79,0.480,26.1,26.3,25.7,5.678,4.3,324,7.5,6.2,-0.00005,-0.00004,32.3,33.6,21,0,0,35.6,12.06,0.00,0.00
15min,AgWx,beryljct,423,29JAN2018:00:30:00,30.4,12.86,30.2,30.4,31.0,31.5,30.4,82,83,81,0.473,26.2,26.7,25.6,3.727,4.6,314,26,7.3,-0.00004,-0.00004,32.2,33.8,20,0,0,35.5,12.06,0.00,0.00
15min,AgWx,beryljct,423,29JAN2018:00:45:00,30.2,12.87,32.6,32.7,32.0,32.9,30.3,79,84,75,0.474,26.2,26.7,25.7,2.565,3.0,312,24,4.1,-0.00008,-0.00009,32.2,33.8,21,0,0,35.7,12.06,0.00,0.00
15min,AgWx,beryljct,423,29JAN2018:01:00:00,30.0,12.86,32.4,32.4,32.5,33.3,32.1,76,76,75,0.469,25.7,26.5,25.3,3.529,2.8,295,19,3.9,-0.00008,-0.00009,32.3,33.8,21,0,0,35.8,12.06,0.00,0.00
15min,AgWx,beryljct,423,29JAN2018:01:15:00,30.0,12.85,30.8,30.8,31.6,32.5,30.8,78,80,76,0.460,25.4,25.7,25.0,4.604,4.3,317,11,5.6,-0.00003,-0.00003,32.3,33.8,21,0,0,35.4,12.06,0.00,0.00
15min,AgWx,beryljct,423,29JAN2018:01:30:00,29.8,12.85,31.5,31.2,30.8,31.2,30.5,80,81,79,0.470,25.4,25.7,25.1,5.086,4.5,310,7.4,5.9,-0.00004,-0.00003,32.3,33.8,21,0,0,35.5,12.06,0.00,0.00
15min,AgWx,beryljct,423,29JAN2018:01:45:00,29.6,12.83,30.9,30.9,30.6,31.2,30.2,82,83,79,0.480,25.6,26.2,25.1,5.568,4.6,313,19,6.2,-0.00004,-0.00004,32.2,33.8,21,0,0,35.4,12.06,0.00,0.00
15min,AgWx,beryljct,423,29JAN2018:02:00:00,29.5,12.72,30.7,30.8,30.6,31.0,30.2,82,84,81,0.479,25.9,26.2,25.4,4.669,4.8,315,7.0,6.2,-0.00004,-0.00004,32.3,33.8,21,0,0,35.8,12.06,0.00,0.00
15min,AgWx,beryljct,423,29JAN2018:02:15:00,29.3,12.83,31.9,32.0,31.4,32.3,30.5,80,83,77,0.471,26.0,26.2,25.6,4.143,4.5,298,4.6,5.4,-0.00004,-0.00003,32.1,33.8,21,0,0,35.8,12.06,0.00,0.00
15min,AgWx,beryljct,423,29JAN2018:02:30:00,29.3,12.83,30.3,30.4,31.8,32.3,30.4,77,80,76,0.456,25.5,25.8,24.9,5.502,4.5,310,11,5.9,-0.00003,-0.00002,32.2,33.8,21,0,0,35.8,12.06,0.00,0.00
15min,AgWx,beryljct,423,29JAN2018:02:45:00,29.2,12.83,31.6,31.6,30.4,31.6,29.5,82,84,78,0.469,25.5,25.8,24.7,5.634,5.5,311,13,6.8,-0.00002,-0.00002,32.1,33.8,21,0,0,36.0,12.06,0.00,0.00
15min,AgWx,beryljct,423,29JAN2018:03:00:00,29.2,12.81,29.2,29.4,30.7,31.6,29.2,81,85,78,0.467,25.4,25.7,24.8,3.924,4.5,324,18,6.9,-0.00004,-0.00004,32.2,33.8,21,0,0,35.5,12.06,0.00,0.00
15min,AgWx,beryljct,423,29JAN2018:03:15:00,29.0,12.68,30.0,30.0,30.0,30.5,29.2,84,85,83,0.478,25.8,26.1,25.2,4.647,4.8,316,6.4,6.6,-0.00005,-0.00005,32.2,33.8,21,0,0,35.6,12.06,0.00,0.00
15min,AgWx,beryljct,423,29JAN2018:03:30:00,28.8,12.8,28.9,29.2,29.6,30.2,29.1,85,85,85,0.462,25.6,26.1,25.1,2.74,4.1,329,9.1,5.5,-0.00006,-0.00007,32.1,33.8,21,0,0,35.6,12.06,0.00,0.00
15min,AgWx,beryljct,423,29JAN2018:03:45:00,28.3,12.8,27.9,28.4,28.9,29.3,28.4,85,85,84,0.443,24.8,25.2,24.2,0,0.7,259,54,2.6,-0.00018,-0.00026,32.1,33.8,21,0,0,35.9,12.06,0.00,0.00
15min,AgWx,beryljct,423,29JAN2018:04:00:00,27.6,12.79,28.0,28.6,28.4,28.8,28.1,85,86,84,0.453,24.4,25.0,23.9,2.653,0.6,189,5.4,2.7,-0.00019,-0.00028,32.2,33.8,21,0,0,35.5,12.06,0.00,0.00
15min,AgWx,beryljct,423,29JAN2018:04:15:00,27.1,12.79,27.4,27.7,27.8,28.5,27.1,85,85,85,0.437,23.9,24.7,23.3,5.546,2.8,173,13,6.3,-0.00009,-0.00011,32.0,33.8,21,0,0,35.5,12.06,0.00,0.00
15min,AgWx,beryljct,423,29JAN2018:04:30:00,26.9,12.66,27.2,27.3,27.1,27.7,26.7,85,85,85,0.429,23.2,23.9,22.8,4.516,4.8,169,9.0,6.9,-0.00005,-0.00005,32.1,33.8,21,0,0,35.6,12.06,0.00,0.00
15min,AgWx,beryljct,423,29JAN2018:04:45:00,26.7,12.77,27.1,27.4,27.2,27.5,26.9,85,85,85,0.431,23.3,23.6,23.0,4.691,4.1,171,9.3,4.8,-0.00006,-0.00006,32.1,33.8,21,0,0,35.7,12.06,0.00,0.00
15min,AgWx,beryljct,423,29JAN2018:05:00:00,26.6,12.76,27.7,27.8,27.5,27.8,27.1,85,85,85,0.439,23.6,24.0,23.2,4.691,4.4,170,12,5.5,-0.00005,-0.00006,32.1,33.8,21,0,0,35.3,12.06,0.00,0.00
15min,AgWx,beryljct,423,29JAN2018:05:15:00,26.5,12.76,27.5,27.7,27.8,28.0,27.5,85,85,85,0.436,23.9,24.2,23.6,3.617,4.3,165,7.4,5.0,-0.00006,-0.00006,32.1,33.8,21,0,0,35.6,12.06,0.00,0.00
15min,AgWx,beryljct,423,29JAN2018:05:30:00,26.4,12.76,26.2,26.5,27.3,28.1,26.3,85,85,85,0.416,23.4,24.2,22.5,1.337,2.7,156,29,4.6,-0.00009,-0.00011,32.0,33.8,21,0,0,35.6,12.06,0.00,0.00
15min,AgWx,beryljct,423,29JAN2018:05:45:00,26.2,12.75,25.6,26.1,27.2,28.3,26.0,85,86,85,0.411,23.3,24.3,22.3,1.03,1.6,207,94,2.9,-0.00013,-0.00017,32.0,33.8,21,0,0,35.7,12.06,0.00,0.00
15min,AgWx,beryljct,423,29JAN2018:06:00:00,25.8,12.6,24.5,24.6,25.3,26.0,24.6,86,86,85,0.386,21.6,22.3,20.9,3.398,2.3,331,12,3.6,-0.00010,-0.00012,31.9,33.8,21,0,0,35.6,12.06,0.00,0.00
15min,AgWx,beryljct,423,29JAN2018:06:15:00,25.4,12.74,24.2,24.4,24.4,24.7,24.2,85,86,85,0.382,20.7,21.0,20.4,0.438,2.1,322,3.4,4.0,-0.00010,-0.00013,32.0,33.8,21,0,0,35.7,12.06,0.00,0.00
15min,AgWx,beryljct,423,29JAN2018:06:30:00,25.0,12.74,25.5,25.5,25.1,25.8,24.3,85,85,85,0.398,21.2,21.9,20.5,2.565,2.6,162,43,4.8,-0.00009,-0.00011,32.0,33.8,21,0,0,35.5,12.06,0.00,0.00
15min,AgWx,beryljct,423,29JAN2018:06:45:00,24.8,12.71,23.6,23.7,24.4,25.6,23.7,85,86,85,0.371,20.7,21.7,20.0,4.757,3.8,179,9.4,5.5,-0.00006,-0.00007,31.9,33.8,21,0,0,35.4,12.06,0.00,0.00
15min,AgWx,beryljct,423,29JAN2018:07:00:00,24.7,12.72,26.3,26.2,24.9,26.3,23.6,85,86,85,0.410,21.1,22.4,19.9,3.573,5.0,176,6.9,6.4,0.00009,0.00016,32.0,33.8,21,0,0,35.7,12.06,0.00,0.00
15min,AgWx,beryljct,423,29JAN2018:07:15:00,24.6,12.71,25.0,25.2,25.9,26.5,25.1,85,86,85,0.394,22.1,22.6,21.3,4.341,2.7,166,28,4.6,0.00006,0.00010,31.8,33.8,21,0,0,35.5,12.06,0.00,0.00
15min,AgWx,beryljct,423,29JAN2018:07:30:00,24.5,12.59,24.9,25.3,25.3,25.7,25.0,85,86,85,0.396,21.5,21.8,21.2,3.069,2.2,155,11,4.9,0.00005,0.00009,31.9,33.8,21,1,0,35.6,12.06,0.00,0.00
15min,AgWx,beryljct,423,29JAN2018:07:45:00,24.4,12.7,24.3,24.7,25.4,26.0,24.6,85,86,85,0.388,21.7,22.2,20.9,2.784,3.1,216,50,4.0,0.00008,0.00013,31.8,33.8,21,4,0,35.6,12.06,0.00,0.00
15min,AgWx,beryljct,423,29JAN2018:08:00:00,24.4,12.77,23.6,24.0,24.2,24.6,23.8,86,86,86,0.377,20.5,21.0,20.1,4.647,3.5,332,10,5.0,0.00016,0.00021,31.8,33.8,21,29,0,35.4,12.06,0.00,0.00
15min,AgWx,beryljct,423,29JAN2018:08:15:00,24.7,12.84,24.1,24.2,23.6,24.2,23.2,86,86,85,0.378,20.0,20.4,19.5,4.932,4.3,339,9.0,5.8,0.00024,0.00030,31.8,33.8,21,56,0,35.7,12.06,0.00,0.00
15min,AgWx,beryljct,423,29JAN2018:08:30:00,26.1,13.25,25.2,25.5,24.7,25.5,24.1,85,85,85,0.400,20.9,21.7,20.3,3.88,4.2,355,9.5,5.4,0.00038,0.00046,31.8,33.8,21,138,0,36.0,12.06,0.00,0.00
15min,AgWx,beryljct,423,29JAN2018:08:45:00,28.6,13.61,27.4,27.5,26.4,27.5,25.4,85,85,85,0.430,22.5,23.5,21.5,4.998,4.4,351,10,5.7,0.00053,0.00062,31.7,33.8,21,195,0,35.8,12.06,0.00,0.00
15min,AgWx,beryljct,423,29JAN2018:09:00:00,31.2,13.88,29.2,29.4,28.5,29.4,27.5,85,85,85,0.467,24.5,25.4,23.5,2.433,4.8,335,8.8,6.6,0.00063,0.00074,31.8,33.8,21,214,0,35.9,12.06,0.00,0.00
15min,AgWx,beryljct,423,29JAN2018:09:15:00,34.0,14.39,30.9,30.9,30.0,30.9,29.1,84,85,83,0.481,25.7,26.3,25.1,3.727,3.1,4.4,13,4.1,0.00081,0.00091,31.8,33.8,21,261,0,37.2,12.06,0.00,0.00
15min,AgWx,beryljct,423,29JAN2018:09:30:00,36.9,14.39,33.2,31.9,31.4,32.1,30.9,81,83,80,0.485,26.4,26.7,26.0,1.271,2.1,47,12,3.9,0.00093,0.00104,31.8,33.8,21,274,0,39.8,12.06,0.00,0.00
15min,AgWx,beryljct,423,29JAN2018:09:45:00,39.1,14.77,32.7,32.7,32.2,32.7,31.8,80,81,77,0.486,26.6,27.1,26.2,2.258,2.7,24,14,3.9,0.00093,0.00105,31.7,33.8,21,260,0,39.8,12.06,0.00,0.00
15min,AgWx,beryljct,423,29JAN2018:10:00:00,40.2,14.74,33.1,33.3,33.0,33.4,32.7,78,80,77,0.513,27.0,27.9,26.4,5.393,4.2,7.9,12,5.9,0.00092,0.00108,31.8,33.8,21,247,0,38.2,12.07,0.00,0.00
15min,AgWx,beryljct,423,29JAN2018:10:15:00,41.2,14.69,34.7,35.2,34.5,35.3,33.3,78,81,74,0.519,28.2,29.2,27.4,5.042,5.1,326,9.8,6.6,0.00113,0.00132,31.7,33.8,21,307,0,38.7,12.07,0.00,0.00
15min,AgWx,beryljct,423,29JAN2018:10:30:00,42.7,14.67,35.5,35.9,35.7,36.3,35.3,73,76,70,0.523,27.9,28.9,27.3,5.02,5.6,328,8.6,6.9,0.00137,0.00161,31.7,33.9,21,366,0,40.1,12.07,0.00,0.00
15min,AgWx,beryljct,423,29JAN2018:10:45:00,44.4,14.63,36.5,36.6,36.3,36.8,35.9,73,75,70,0.528,28.3,29.2,27.3,4.165,5.2,339,10,6.9,0.00155,0.00180,31.7,33.9,21,416,0,41.7,12.07,0.00,0.00
15min,AgWx,beryljct,423,29JAN2018:11:00:00,46.5,14.6,37.7,37.8,37.2,37.8,36.6,70,73,68,0.530,28.4,29.7,27.6,1.907,3.8,353,14,6.3,0.00177,0.00202,31.6,33.8,21,460,0,43.8,12.06,0.00,0.00
15min,AgWx,beryljct,423,29JAN2018:11:15:00,48.9,14.56,39.3,38.7,38.0,38.7,37.5,66,68,64,0.541,27.9,29.0,26.9,1.951,2.6,18,24,4.2,0.00200,0.00224,31.7,33.8,21,503,0,46.5,12.06,0.00,0.00
15min,AgWx,beryljct,423,29JAN2018:11:30:00,51.0,14.52,40.3,39.7,39.3,40.0,38.6,65,68,63,0.527,28.3,29.7,27.7,2.455,2.0,84,15,3.6,0.00223,0.00247,31.7,33.8,21,547,0,50.1,12.06,0.00,0.00
15min,AgWx,beryljct,423,29JAN2018:11:45:00,52.3,14.09,40.8,40.7,40.3,40.7,39.5,62,64,60,0.542,28.3,29.4,27.5,3.442,2.1,104,18,3.5,0.00228,0.00254,31.7,33.8,21,545,0,52.1,12.06,0.00,0.00
15min,AgWx,beryljct,423,29JAN2018:12:00:00,52.6,14.04,39.3,39.6,40.0,41.1,39.4,67,72,63,0.552,30.0,31.5,28.7,5.415,5.2,139,12,7.8,0.00216,0.00249,31.7,33.8,21,543,0,48.9,12.07,0.00,0.00
15min,AgWx,beryljct,423,29JAN2018:12:15:00,52.1,14.11,39.9,40.2,39.9,40.3,39.5,68,71,66,0.561,30.3,31.2,29.2,4.954,5.7,137,11,7.6,0.00219,0.00254,31.8,33.8,21,562,0,47.9,12.06,0.00,0.00
15min,AgWx,beryljct,423,29JAN2018:12:30:00,51.9,14.09,40.7,41.0,40.6,41.1,39.9,66,69,63,0.577,30.2,31.5,29.2,5.349,5.1,136,9.2,7.0,0.00221,0.00256,31.7,33.8,21,551,0,49.2,12.06,0.00,0.00
15min,AgWx,beryljct,423,29JAN2018:12:45:00,52.0,14.07,42.7,42.5,41.9,42.5,41.2,63,68,59,0.550,30.1,31.5,29.2,2.039,3.4,129,15,5.9,0.00231,0.00263,31.8,33.8,21,550,0,51.2,12.06,0.00,0.00
15min,AgWx,beryljct,423,29JAN2018:13:00:00,52.7,14.07,44.1,44.0,43.3,44.0,42.4,61,64,56,0.567,30.5,31.9,29.1,2.302,2.7,111,14,4.2,0.00242,0.00273,32.0,33.9,21,560,0,54.9,12.06,0.00,0.00
15min,AgWx,beryljct,423,29JAN2018:13:15:00,53.8,14.02,46.2,45.6,44.3,45.6,43.7,55,63,49,0.510,29.1,32.6,27.3,0,1.8,83,28,4.0,0.00228,0.00255,32.5,33.8,21,515,0,57.0,12.06,0.00,0.00
15min,AgWx,beryljct,423,29JAN2018:13:30:00,55.6,14,46.4,45.8,46.2,46.8,45.6,48,53,44,0.483,27.5,30.3,25.9,1.14,1.2,120,21,2.9,0.00223,0.00248,33.3,33.8,21,488,0,62.3,12.06,0.00,0.00
15min,AgWx,beryljct,423,29JAN2018:13:45:00,56.3,13.99,47.1,46.5,46.2,46.7,45.8,48,51,46,0.493,27.6,29.3,26.0,0.504,1.4,106,17,2.6,0.00202,0.00226,34.2,33.8,21,441,0,60.8,12.06,0.00,0.00
15min,AgWx,beryljct,423,29JAN2018:14:00:00,56.3,13.97,47.3,46.7,46.4,46.8,46.1,49,52,46,0.519,28.3,30.0,26.9,2.083,1.6,92,19,2.9,0.00173,0.00196,35.1,33.8,21,371,0,58.3,12.06,0.00,0.00
15min,AgWx,beryljct,423,29JAN2018:14:15:00,56.8,13.98,49.6,48.1,47.2,48.1,46.5,47,51,43,0.508,28.1,30.0,26.1,0.745,1.7,57,14,2.9,0.00226,0.00256,36.1,33.8,21,494,0,57.0,12.06,0.00,0.00
15min,AgWx,beryljct,423,29JAN2018:14:30:00,58.7,13.92,50.2,49.0,49.0,50.0,48.1,46,51,43,0.537,28.9,32.5,26.7,1.359,1.2,99,26,3.0,0.00233,0.00259,36.9,33.9,21,497,0,59.6,12.06,0.00,0.00
15min,AgWx,beryljct,423,29JAN2018:14:45:00,60.2,13.91,49.9,49.3,49.4,49.7,49.0,49,52,44,0.550,30.8,32.7,28.7,2.192,2.2,68,24,3.7,0.00228,0.00261,37.7,33.9,21,479,0,57.9,12.06,0.00,0.00
15min,AgWx,beryljct,423,29JAN2018:15:00:00,60.5,13.88,49.1,48.8,49.2,49.5,48.8,50,55,45,0.595,31.5,34.0,29.1,2.74,3.5,97,19,5.5,0.00221,0.00262,38.4,33.9,21,459,0,55.8,12.06,0.00,0.00
15min,AgWx,beryljct,423,29JAN2018:15:15:00,60.3,13.88,50.0,48.8,49.0,49.3,48.7,50,55,48,0.583,31.4,33.8,29.7,2.828,2.9,92,20,4.3,0.00199,0.00236,39.2,34.0,21,424,0,55.2,12.06,0.00,0.00
15min,AgWx,beryljct,423,29JAN2018:15:30:00,60.2,13.89,50.3,49.6,49.4,49.7,48.8,49,53,46,0.568,31.0,33.2,29.4,1.929,2.7,75,12,4.3,0.00179,0.00213,39.8,34.0,21,384,0,55.3,12.06,0.00,0.00
15min,AgWx,beryljct,423,29JAN2018:15:45:00,60.0,13.91,50.7,49.9,49.7,50.2,49.3,46,49,40,0.516,29.6,31.7,26.7,3.113,2.8,81,12,4.0,0.00170,0.00206,40.4,34.1,21,362,0,55.4,12.06,0.00,0.00
15min,AgWx,beryljct,423,29JAN2018:16:00:00,60.1,13.9,50.5,50.2,50.0,50.3,49.7,41,44,38,0.533,27.5,29.1,25.1,2.017,2.5,114,17,3.5,0.00157,0.00192,40.9,34.2,21,338,0,56.1,12.06,0.00,0.00
15min,AgWx,beryljct,423,29JAN2018:16:15:00,60.2,13.88,50.4,50.5,50.4,50.7,50.0,42,47,35,0.586,28.1,31.0,23.7,2.718,2.5,130,8.1,4.3,0.00135,0.00168,41.4,34.4,21,296,0,56.1,12.06,0.00,0.00
15min,AgWx,beryljct,423,29JAN2018:16:30:00,59.8,13.88,50.5,50.2,50.3,50.5,49.9,50,55,46,0.639,32.4,34.8,30.4,0.921,2.1,117,13,3.0,0.00097,0.00121,41.6,34.5,21,236,0,55.1,12.06,0.00,0.00
15min,AgWx,beryljct,423,29JAN2018:16:45:00,59.0,13.91,50.2,49.9,50.3,50.7,49.9,51,53,49,0.629,32.8,34.3,31.8,1.754,0.9,105,7.8,1.8,0.00047,0.00057,42.0,34.6,21,170,0,54.5,12.06,0.00,0.00
15min,AgWx,beryljct,423,29JAN2018:17:00:00,57.6,13.94,49.7,49.0,49.6,50.1,49.0,53,56,50,0.632,32.9,34.8,31.6,1.578,1.2,106,19,1.9,0.00014,0.00022,42.2,34.8,21,113,0,51.9,12.06,0.00,0.00
15min,AgWx,beryljct,423,29JAN2018:17:15:00,55.6,13.45,47.0,47.4,48.3,49.0,47.2,57,62,53,0.625,33.9,35.8,32.4,1.447,0.7,76,28,1.9,-0.00005,-0.00006,42.2,35.0,21,65,0,48.5,12.06,0.00,0.00
15min,AgWx,beryljct,423,29JAN2018:17:30:00,53.2,13.25,46.2,46.8,46.9,47.4,46.6,57,60,55,0.601,32.7,34.2,31.5,0,0.8,316,10,1.6,-0.00011,-0.00015,42.1,35.1,21,39,0,45.3,12.06,0.00,0.00
15min,AgWx,beryljct,423,29JAN2018:17:45:00,50.6,13.15,43.1,43.7,45.2,46.8,43.1,58,62,55,0.598,31.3,31.6,30.9,0.723,0.4,308,6.2,2.0,-0.00022,-0.00032,42.1,35.2,21,17,0,42.2,12.06,0.00,0.00
15min,AgWx,beryljct,423,29JAN2018:18:00:00,48.1,13.08,43.9,44.0,43.1,44.0,42.5,63,65,58,0.571,31.3,32.2,30.3,2.433,1.9,298,18,2.8,-0.00011,-0.00012,41.8,35.4,21,4,0,40.7,12.06,0.00,0.00
15min,AgWx,beryljct,423,29JAN2018:18:15:00,45.8,13.06,40.2,39.5,41.7,44.3,38.5,63,71,57,0.560,30.1,30.5,29.6,2.631,2.4,286,18,3.4,-0.00007,-0.00008,41.6,35.6,21,1,0,40.6,12.05,0.00,0.00
15min,AgWx,beryljct,423,29JAN2018:18:30:00,43.6,13.04,39.6,39.7,39.0,40.4,37.8,70,73,64,0.554,30.0,30.4,29.2,3.332,2.4,268,7.1,3.4,-0.00009,-0.00010,41.2,35.8,21,0,0,40.3,12.06,0.00,0.00
15min,AgWx,beryljct,423,29JAN2018:18:45:00,41.9,13.03,36.9,36.8,37.9,39.6,36.8,73,76,68,0.560,30.0,30.4,29.6,2.653,3.3,258,14,4.2,-0.00005,-0.00005,40.8,35.9,21,0,0,39.9,12.06,0.00,0.00
15min,AgWx,beryljct,423,29JAN2018:19:00:00,40.4,13.01,35.8,35.8,36.3,36.9,35.4,78,81,76,0.575,30.2,30.5,29.8,2.674,2.7,225,29,3.6,-0.00010,-0.00011,40.4,36.1,21,0,0,36.5,12.06,0.00,0.00
15min,AgWx,beryljct,423,29JAN2018:19:15:00,39.0,13.01,35.1,35.1,35.7,36.2,34.9,78,81,74,0.532,29.6,30.6,28.3,3.486,3.4,186,14,6.3,-0.00007,-0.00007,40.0,36.2,21,0,0,35.9,12.06,0.00,0.00
15min,AgWx,beryljct,423,29JAN2018:19:30:00,37.7,12.99,33.1,33.2,33.8,35.2,33.2,82,84,77,0.538,28.9,29.4,28.4,2.718,3.7,182,9.5,4.8,-0.00007,-0.00007,39.7,36.4,21,0,0,35.4,12.06,0.00,0.00
15min,AgWx,beryljct,423,29JAN2018:19:45:00,36.6,12.98,34.3,34.5,34.8,36.1,33.0,80,84,77,0.545,29.4,30.1,28.7,0.943,1.8,218,28,2.9,-0.00014,-0.00017,39.3,36.5,22,0,0,35.6,12.06,0.00,0.00
15min,AgWx,beryljct,423,29JAN2018:20:00:00,35.7,12.97,31.9,32.4,34.1,35.7,32.3,81,84,78,0.519,28.8,30.0,27.9,2.543,2.4,294,30,3.9,-0.00011,-0.00013,39.0,36.6,22,0,0,35.5,12.06,0.00,0.00
15min,AgWx,beryljct,423,29JAN2018:20:15:00,34.9,12.95,31.6,31.8,32.1,32.4,31.8,84,84,84,0.511,27.9,28.1,27.6,2.368,3.0,324,4.3,5.2,-0.00009,-0.00011,38.5,36.7,22,0,0,35.6,12.06,0.00,0.00
15min,AgWx,beryljct,423,29JAN2018:20:30:00,34.2,12.96,33.6,33.8,32.6,33.8,31.6,84,84,84,0.549,28.3,29.4,27.4,0,1.0,260,32,2.3,-0.00018,-0.00024,38.2,36.8,22,0,0,35.7,12.06,0.00,0.00
15min,AgWx,beryljct,423,29JAN2018:20:45:00,33.7,12.94,30.8,31.1,33.0,34.6,31.1,82,85,79,0.496,28.2,29.4,26.9,3.88,2.3,347,20,4.5,-0.00012,-0.00014,37.9,36.9,21,0,0,35.5,12.06,0.00,0.00
15min,AgWx,beryljct,423,29JAN2018:21:00:00,33.2,12.93,31.2,31.2,31.2,32.0,30.6,84,84,83,0.496,26.8,27.6,26.0,0.153,2.2,336,8.7,3.9,-0.00011,-0.00014,37.6,36.9,21,0,0,35.8,12.06,0.00,0.00
15min,AgWx,beryljct,423,29JAN2018:21:15:00,32.8,12.8,32.4,32.7,31.7,32.7,31.2,84,84,84,0.526,27.4,28.4,26.8,1.25,0.8,63,16,2.3,-0.00018,-0.00026,37.3,36.9,21,0,0,35.7,12.06,0.00,0.00
15min,AgWx,beryljct,423,29JAN2018:21:30:00,32.5,12.91,30.6,31.0,32.3,33.3,30.7,84,84,84,0.490,28.0,29.0,26.4,3.551,1.8,117,59,4.5,-0.00014,-0.00018,37.0,37.0,21,0,0,35.4,12.06,0.00,0.00
15min,AgWx,beryljct,423,29JAN2018:21:45:00,32.2,12.9,31.1,31.2,31.0,31.5,30.6,83,84,83,0.491,26.5,26.9,26.0,3.508,2.6,179,6.0,3.5,-0.00010,-0.00012,36.7,37.0,22,0,0,35.6,12.06,0.00,0.00
15min,AgWx,beryljct,423,29JAN2018:22:00:00,31.9,12.91,31.2,31.2,31.6,31.8,31.2,83,83,83,0.492,27.0,27.3,26.6,3.003,2.3,180,7.5,3.8,-0.00011,-0.00013,36.6,37.0,22,0,0,35.6,12.06,0.00,0.00
15min,AgWx,beryljct,423,29JAN2018:22:15:00,31.6,12.9,31.1,31.2,31.2,31.5,30.9,83,83,83,0.491,26.7,27.0,26.4,2.609,2.3,164,5.4,3.7,-0.00011,-0.00014,36.4,37.0,22,0,0,35.6,12.06,0.00,0.00
15min,AgWx,beryljct,423,29JAN2018:22:30:00,31.2,12.89,30.3,30.6,30.9,31.3,30.2,83,84,83,0.481,26.4,26.8,25.8,3.442,2.6,169,6.0,3.6,-0.00010,-0.00012,36.2,37.0,22,0,0,35.6,12.06,0.00,0.00
15min,AgWx,beryljct,423,29JAN2018:22:45:00,31.0,12.88,31.0,31.2,31.0,31.3,30.4,83,84,83,0.493,26.5,26.9,26.0,3.486,3.2,168,5.9,4.1,-0.00008,-0.00009,36.0,37.0,22,0,0,35.7,12.06,0.00,0.00
15min,AgWx,beryljct,423,29JAN2018:23:00:00,31.0,12.88,32.0,32.1,31.9,32.3,31.2,84,84,83,0.513,27.4,27.9,26.7,5.283,4.7,177,3.8,6.2,-0.00005,-0.00005,35.9,37.0,22,0,0,35.8,12.06,0.00,0.00
15min,AgWx,beryljct,423,29JAN2018:23:15:00,31.2,12.88,32.4,32.5,32.4,32.9,31.8,84,84,83,0.521,28.0,28.6,27.4,4.516,5.4,164,5.4,6.8,-0.00004,-0.00003,35.7,37.0,22,0,0,35.6,12.06,0.00,0.00
15min,AgWx,beryljct,423,29JAN2018:23:30:00,31.3,12.87,31.3,31.4,31.8,32.7,31.2,84,84,83,0.497,27.4,28.3,26.7,6.007,5.0,163,8.6,6.4,-0.00004,-0.00004,35.6,37.0,22,0,0,35.4,12.06,0.00,0.00
15min,AgWx,beryljct,423,29JAN2018:23:45:00,31.4,12.88,34.0,34.0,32.6,34.3,31.2,83,84,80,0.530,28.1,29.1,26.7,4.713,5.1,175,4.4,5.8,-0.00004,-0.00003,35.4,36.9,22,0,0,35.9,12.06,0.00,0.00
15min,AgWx,bigpiney,439,29JAN2018:00:00:00,20.0,12.85,16.3,15.4,15.9,17.4,14.7,87,90,85,0.269,12.6,15.0,11.3,3.529,4.0,233,14,6.1,-0.00005,-0.00005,30.1,31.1,12,0,0,0.0,.,0.00,0.00
15min,AgWx,bigpiney,439,29JAN2018:00:15:00,19.5,12.85,22.9,20.5,17.2,20.5,15.0,88,92,84,0.330,14.3,17.4,10.9,2.368,3.6,261,48,6.1,-0.00006,-0.00007,30.1,31.1,12,0,0,0.0,.,0.00,0.00
15min,AgWx,bigpiney,439,29JAN2018:00:30:00,19.5,12.85,15.2,15.9,18.6,22.7,15.6,85,90,79,0.260,14.7,19.6,10.7,1.074,1.8,246,28,5.1,-0.00010,-0.00012,30.1,31.1,12,0,0,0.0,.,0.00,0.00
15min,AgWx,bigpiney,439,29JAN2018:00:45:00,19.2,12.84,19.8,18.7,16.6,18.7,14.6,88,90,83,0.315,13.6,16.2,10.2,0,1.3,79,26,3.4,-0.00011,-0.00015,30.1,31.1,12,0,0,0.0,.,0.00,0.00
15min,AgWx,bigpiney,439,29JAN2018:01:00:00,19.0,12.83,17.1,17.6,18.2,19.3,17.4,88,90,86,0.297,15.1,16.5,14.2,3.442,1.1,302,50,3.4,-0.00013,-0.00017,30.0,31.1,12,0,0,0.0,.,0.00,0.00
15min,AgWx,bigpiney,439,29JAN2018:01:15:00,18.7,12.83,16.2,15.2,14.9,17.4,13.6,87,90,83,0.268,11.8,14.6,9.7,6.445,5.2,222,10,7.1,-0.00004,-0.00004,30.0,31.1,12,0,0,0.0,.,0.00,0.00
15min,AgWx,bigpiney,439,29JAN2018:01:30:00,18.5,12.82,16.3,16.2,17.0,19.5,15.3,88,91,85,0.269,14.0,17.1,12.5,5.919,5.4,236,14,7.4,-0.00004,-0.00004,30.0,31.1,12,0,0,0.0,.,0.00,0.00
15min,AgWx,bigpiney,439,29JAN2018:01:45:00,18.5,12.82,16.1,15.6,16.1,16.6,15.5,87,89,85,0.267,13.0,14.0,12.1,6.138,4.6,228,18,7.1,-0.00004,-0.00005,29.9,31.1,12,0,0,0.0,.,0.00,0.00
15min,AgWx,bigpiney,439,29JAN2018:02:00:00,18.5,12.8,16.4,15.8,16.5,17.3,15.5,88,89,86,0.265,13.6,14.5,12.2,1.907,4.2,250,28,6.3,-0.00005,-0.00006,29.9,31.1,12,0,0,0.0,.,0.00,0.00
15min,AgWx,bigpiney,439,29JAN2018:02:15:00,18.4,12.8,17.0,16.7,16.8,18.0,15.7,88,90,86,0.284,13.9,15.4,12.2,1.293,1.2,16,71,5.2,-0.00012,-0.00016,29.9,31.1,12,0,0,0.0,.,0.00,0.00
15min,AgWx,bigpiney,439,29JAN2018:02:30:00,18.2,12.8,19.5,18.0,16.5,18.0,14.1,89,93,85,0.308,13.9,15.7,10.5,1.513,2.6,220,29,5.3,-0.00008,-0.00010,29.9,31.0,12,0,0,0.0,.,0.00,0.00
15min,AgWx,bigpiney,439,29JAN2018:02:45:00,18.1,12.78,18.0,16.3,16.8,18.9,15.3,89,92,84,0.284,14.0,16.7,11.5,4.297,4.7,242,15,8.0,-0.00005,-0.00005,29.8,31.1,12,0,0,0.0,.,0.00,0.00
15min,AgWx,bigpiney,439,29JAN2018:03:00:00,17.8,12.77,20.8,18.2,16.2,18.2,14.6,90,92,86,0.317,13.6,16.3,11.3,2.389,4.2,237,14,5.6,-0.00006,-0.00006,29.8,31.0,12,0,0,0.0,.,0.00,0.00
15min,AgWx,bigpiney,439,29JAN2018:03:15:00,17.6,12.77,15.7,14.7,16.1,18.8,13.9,89,93,84,0.263,13.4,17.1,10.6,0.548,2.7,53,95,5.2,-0.00008,-0.00009,29.8,31.0,12,0,0,0.0,.,0.00,0.00
15min,AgWx,bigpiney,439,29JAN2018:03:30:00,17.4,12.75,17.2,17.2,15.9,17.5,14.6,91,92,89,0.301,13.7,15.6,12.0,1.315,1.1,127,41,5.5,-0.00012,-0.00016,29.7,31.1,12,0,0,0.0,.,0.00,0.00
15min,AgWx,bigpiney,439,29JAN2018:03:45:00,17.2,12.75,20.0,18.6,17.5,20.2,15.6,91,94,87,0.320,15.3,18.8,12.7,1.754,1.4,244,67,5.8,-0.00012,-0.00015,29.7,31.0,12,0,0,0.0,.,0.00,0.00
15min,AgWx,bigpiney,439,29JAN2018:04:00:00,17.1,12.75,17.1,16.6,17.6,19.7,16.3,90,93,84,0.287,15.2,17.9,12.3,3.705,2.3,286,45,5.3,-0.00009,-0.00011,29.7,31.0,12,0,0,0.0,.,0.00,0.00
15min,AgWx,bigpiney,439,29JAN2018:04:15:00,16.8,12.74,15.7,17.3,16.8,18.9,15.1,91,94,88,0.302,14.6,17.4,12.3,6.599,4.8,253,12,7.3,-0.00005,-0.00006,29.6,31.0,12,0,0,0.0,.,0.00,0.00
15min,AgWx,bigpiney,439,29JAN2018:04:30:00,16.6,12.73,20.1,19.5,15.5,19.7,13.7,89,94,87,0.343,12.9,18.3,10.6,1.008,3.6,304,78,6.5,-0.00006,-0.00007,29.6,31.0,12,0,0,0.0,.,0.00,0.00
15min,AgWx,bigpiney,439,29JAN2018:04:45:00,16.5,12.73,16.8,15.7,16.0,19.5,14.2,89,94,87,0.282,13.4,18.0,11.3,0,0.7,35,4.2,3.5,-0.00014,-0.00019,29.6,31.0,12,0,0,0.0,.,0.00,0.00
15min,AgWx,bigpiney,439,29JAN2018:05:00:00,16.4,12.72,16.9,14.6,14.8,16.6,12.7,90,92,85,0.267,12.3,14.6,9.4,3.113,2.3,180,11,6.3,-0.00008,-0.00010,29.6,31.0,12,0,0,0.0,.,0.00,0.00
15min,AgWx,bigpiney,439,29JAN2018:05:15:00,16.1,12.71,15.6,15.1,16.0,17.8,12.6,91,94,86,0.268,13.7,16.3,9.5,4.406,4.7,211,23,7.1,-0.00005,-0.00006,29.5,31.0,12,0,0,0.0,.,0.00,0.00
15min,AgWx,bigpiney,439,29JAN2018:05:30:00,16.2,12.7,19.5,19.0,17.0,19.4,14.4,88,92,84,0.300,13.9,16.9,10.7,0,4.2,220,43,8.4,-0.00005,-0.00005,29.5,30.9,12,0,0,0.0,.,0.00,0.00
15min,AgWx,bigpiney,439,29JAN2018:05:45:00,16.6,12.69,18.1,17.9,18.9,19.5,17.9,84,85,82,0.287,14.8,15.4,13.6,1.907,1.2,263,18,3.6,-0.00012,-0.00017,29.5,31.0,12,0,0,0.0,.,0.00,0.00
15min,AgWx,bigpiney,439,29JAN2018:06:00:00,16.8,12.69,15.6,14.2,14.3,17.8,12.6,86,90,80,0.261,10.7,14.0,8.3,3.968,2.4,291,25,5.2,-0.00007,-0.00009,29.4,30.9,12,0,0,0.0,.,0.00,0.00
15min,AgWx,bigpiney,439,29JAN2018:06:15:00,16.3,12.68,15.0,14.4,13.8,15.5,12.4,89,92,84,0.266,11.2,13.1,8.7,1.359,3.3,240,22,6.1,-0.00006,-0.00007,29.4,30.9,12,0,0,0.0,.,0.00,0.00
15min,AgWx,bigpiney,439,29JAN2018:06:30:00,15.7,12.68,18.7,17.2,15.2,17.2,13.5,90,92,88,0.299,12.8,15.0,10.6,1.754,1.8,278,23,2.3,-0.00010,-0.00012,29.4,30.9,12,0,0,0.0,.,0.00,0.00
15min,AgWx,bigpiney,439,29JAN2018:06:45:00,15.3,12.67,13.6,16.0,14.3,17.2,12.9,88,92,83,0.285,11.5,15.1,9.3,0,1.6,17,64,4.7,-0.00010,-0.00012,29.3,30.9,12,0,0,0.0,.,0.00,0.00
15min,AgWx,bigpiney,439,29JAN2018:07:00:00,15.2,12.66,18.5,17.9,16.7,18.1,14.5,90,92,87,0.302,14.3,15.8,11.4,2.214,2.3,258,17,5.0,-0.00009,-0.00011,29.3,30.8,12,0,0,0.0,.,0.00,0.00
15min,AgWx,bigpiney,439,29JAN2018:07:15:00,15.1,12.65,13.7,13.3,14.8,18.0,12.6,88,92,82,0.251,11.9,15.3,9.2,2.455,2.3,359,85,4.8,-0.00008,-0.00010,29.3,30.9,12,0,0,0.0,.,0.00,0.00
15min,AgWx,bigpiney,439,29JAN2018:07:30:00,14.8,12.65,16.5,16.0,14.5,16.0,12.0,91,93,87,0.284,12.3,13.9,9.0,0.986,0.9,248,41,3.0,-0.00012,-0.00016,29.2,30.8,12,1,0,0.0,.,0.00,0.00